Wind_Speed
10 4 5 5 6 6 4 2 3 2 4 6 7 8 9 10 11 10 8 7 6 6 8 9 10 11 11 10 8 8 9 9 8 5 4 4 3 3 1 0 2 4 6 7 8 10 11 12 14 12 11 12 12 12 13 14 14 13 13 13 13 13 13 12 13 14 16 18 19 20 21 22 24 25 26 27 27 27 28 28 28 28 29 29 31 32
7 5 6 5 5 6 4 2 4 4 3 3 4 7 8 9 11 10 8 8 6 6 8 9 10 10 10 10 9 9 8 8 7 5 4 4 3 3 2 1 2 5 6 7 8 10 11 12 14 12 11 12 12 12 13 14 14 13 13 13 13 13 13 13 14 16 17 19 20 21 22 23 24 25 26 27 27 27 27 28 28 29 30 31 32 33
4 6 8 7 6 4 3 3 3 5 6 5 4 7 9 9 9 9 9 7 4 6 8 7 9 10 9 8 9 9 7 7 6 4 4 5 4 4 3 2 3 5 6 8 9 9 11 14 14 12 11 12 12 12 13 14 13 13 13 13 13 13 13 14 15 17 18 19 20 21 22 23 25 26 27 27 27 27 27 28 29 29 30 31 32 32
5 9 10 7 7 5 4 5 3 5 8 7 5 6 9 7 5 8 9 6 3 6 6 4 7 10 8 7 8 8 7 4 5 4 4 4 4 4 4 3 3 5 5 8 9 9 11 13 13 12 11 12 12 13 13 14 13 13 12 13 13 14 14 15 16 18 19 19 20 22 23 24 26 26 26 27 27 27 27 28 28 29 30 31 31 32
6 10 8 4 7 5 5 7 4 4 6 7 7 6 8 7 6 8 8 5 2 2 3 2 5 7 7 8 8 7 5 5 7 6 5 4 4 5 5 3 4 6 6 7 9 10 10 12 13 12 11 11 12 13 13 13 13 12 12 13 13 14 15 16 17 18 19 20 21 22 23 25 25 26 26 26 26 26 27 27 28 29 30 31 31 32
7 10 8 5 7 7 7 8 5 5 3 5 8 7 7 7 7 9 7 4 2 1 2 3 3 4 7 8 8 8 7 7 9 8 6 5 4 5 6 5 5 8 7 7 9 10 10 11 12 11 11 12 12 13 13 13 13 13 13 14 14 15 16 16 17 18 19 20 21 22 24 25 25 25 25 26 26 26 27 28 28 29 30 31 31 32
6 9 8 7 8 7 7 7 6 5 4 5 8 8 7 6 7 8 6 5 4 3 2 2 2 3 6 8 8 9 8 8 9 8 8 7 6 5 5 5 6 9 8 8 9 9 9 10 11 10 11 12 12 12 13 13 13 13 13 14 15 15 16 17 17 18 19 20 21 23 24 25 25 26 26 26 26 27 28 28 29 29 30 31 32 32
4 6 8 8 9 7 6 5 5 5 6 8 9 7 8 7 8 5 3 5 2 1 2 2 2 1 4 8 9 9 9 9 9 8 9 9 8 6 5 5 7 8 7 7 9 8 7 8 9 10 12 12 12 12 13 13 13 13 14 14 15 15 16 16 17 17 19 20 21 23 24 25 26 26 26 26 27 27 28 29 29 30 30 31 32 32
3 5 8 10 9 6 7 5 5 7 7 8 8 7 7 7 9 5 4 5 0 2 1 5 2 1 4 9 11 10 10 10 10 10 10 11 10 9 7 5 6 4 4 7 9 7 6 7 8 10 12 12 11 12 13 13 13 13 14 14 15 15 15 16 16 18 18 20 22 23 24 25 25 26 26 27 27 27 28 29 29 29 30 31 32 32
4 3 5 9 9 7 9 6 4 7 7 7 7 7 5 7 9 6 4 6 2 1 4 8 4 1 4 11 12 10 11 11 10 12 11 12 13 10 6 4 6 5 4 8 9 7 5 7 9 10 11 11 11 11 11 12 13 13 14 14 15 15 15 15 16 18 18 20 22 23 24 25 25 26 26 26 26 27 29 29 29 29 30 31 31 31
4 4 4 6 7 7 8 5 4 5 4 5 7 8 6 5 7 5 4 5 2 3 1 6 6 4 2 8 11 10 11 11 11 13 12 14 15 10 7 9 9 7 7 10 9 5 5 9 10 10 10 9 10 10 10 12 12 13 14 14 15 14 15 16 16 17 19 20 22 23 24 25 25 26 25 26 26 28 29 29 29 29 29 30 30 30
3 4 1 2 5 3 2 1 3 3 3 6 7 9 8 5 5 3 1 2 2 4 3 3 4 3 1 5 8 6 10 12 12 14 13 15 16 11 10 10 9 8 7 7 5 4 9 10 10 10 9 8 9 9 10 12 12 13 14 14 14 14 15 15 16 17 19 20 22 23 24 25 25 25 25 26 27 28 28 28 28 28 29 29 29 28
2 4 2 2 2 2 3 1 1 3 2 4 7 10 8 4 3 3 2 2 6 5 0 0 3 3 1 4 6 5 7 11 11 13 13 16 16 12 11 10 9 11 8 5 4 7 11 10 9 8 8 8 9 9 9 11 12 12 13 13 14 14 14 15 16 17 18 20 22 23 24 24 25 25 25 26 27 27 27 27 28 28 29 29 28 28
1 5 4 1 1 3 6 2 1 3 3 5 9 11 9 5 4 4 3 3 6 7 5 2 2 2 3 1 5 7 7 8 9 11 12 15 15 11 12 11 12 12 8 7 6 9 10 9 8 7 8 8 7 8 8 10 11 12 13 13 13 13 14 15 15 17 18 20 21 22 23 24 24 25 25 26 27 27 28 28 28 29 29 29 29 28
3 3 3 2 1 3 4 3 2 1 5 7 6 8 8 5 5 2 3 5 6 5 6 5 2 1 3 4 5 6 7 6 9 12 12 14 14 10 12 12 11 12 9 8 8 10 8 7 7 7 9 8 7 8 8 9 11 11 12 12 12 13 13 14 15 17 18 19 21 22 23 23 24 25 25 26 27 28 28 28 29 29 30 30 30 28
3 2 3 4 2 2 2 2 3 1 1 2 5 6 5 4 5 1 4 7 7 3 3 5 2 1 1 3 4 4 6 6 10 13 11 12 12 9 13 13 11 11 10 9 10 11 7 6 8 9 10 9 8 8 7 9 10 10 11 12 12 13 13 14 15 16 17 19 20 21 22 23 24 25 26 26 28 28 29 29 29 30 30 30 30 28
4 6 3 6 3 1 3 3 2 0 2 3 2 5 3 2 5 2 3 7 4 2 2 3 1 3 2 2 3 6 6 6 11 12 10 12 10 8 13 15 14 13 12 11 10 9 6 8 10 10 10 10 9 7 6 8 9 10 11 11 12 12 13 14 15 16 17 18 20 21 22 23 24 25 26 27 28 29 29 29 29 30 30 30 29 27
6 6 2 5 5 3 1 3 6 5 3 3 3 5 3 2 4 5 3 4 2 1 2 2 3 6 2 1 3 6 6 6 10 11 11 12 10 8 15 17 15 14 12 10 8 8 8 8 9 10 11 10 10 8 6 7 8 9 10 10 11 11 12 14 14 16 17 18 20 21 22 23 24 25 26 27 28 28 29 29 29 30 30 29 29 28
6 4 3 1 2 3 2 4 7 8 6 5 5 6 5 4 3 4 2 2 3 2 2 1 4 4 1 1 2 4 5 7 10 12 12 12 8 9 15 16 15 14 12 11 9 9 8 8 9 10 11 10 10 8 6 7 7 8 9 10 10 11 12 13 14 15 17 18 20 21 22 23 24 25 26 27 28 28 28 29 29 29 29 29 29 27
6 6 2 2 4 2 3 5 5 4 5 7 9 9 6 4 3 3 2 5 5 1 3 2 2 1 2 2 1 2 5 6 9 12 13 11 7 9 14 14 15 14 12 11 10 9 7 8 9 11 11 10 10 8 6 6 6 8 8 9 10 11 12 12 14 15 16 18 19 20 22 23 24 25 26 27 27 28 28 28 28 29 29 29 28 27
4 6 4 3 5 6 5 5 6 6 4 4 8 9 7 6 7 5 2 5 2 4 1 1 2 2 4 2 5 2 3 6 8 10 11 11 8 8 12 15 16 15 12 11 10 9 7 8 9 10 11 11 9 7 6 5 6 7 7 8 10 10 11 12 13 15 16 18 19 20 21 22 24 24 26 27 27 28 28 28 28 28 28 28 28 27
4 6 6 7 7 7 6 6 7 10 7 5 8 8 5 5 7 5 2 3 3 2 3 2 1 3 2 6 7 5 2 5 8 7 10 12 9 8 12 15 15 14 13 12 11 9 8 9 10 11 11 11 9 7 5 4 5 6 7 8 9 10 10 12 13 14 16 18 19 20 21 22 23 24 25 26 27 28 28 27 28 28 28 28 27 26
7 8 8 10 9 9 9 7 6 8 9 11 11 8 7 6 4 5 4 3 4 4 3 1 2 1 2 5 5 7 6 2 6 3 7 11 10 9 11 14 14 14 13 12 11 11 10 9 10 11 11 11 9 7 5 4 4 5 7 7 8 9 10 11 13 14 16 17 18 20 21 22 23 24 25 26 27 27 27 27 28 28 27 27 26 26
6 7 9 12 11 10 8 6 6 5 7 11 10 9 10 8 7 9 7 5 6 8 4 4 2 3 3 2 1 3 5 1 2 2 6 10 10 9 10 12 12 12 12 11 11 12 11 10 10 11 11 11 9 7 5 4 4 5 6 7 8 9 10 11 12 14 15 17 18 19 20 21 22 23 24 25 26 27 27 27 28 28 27 27 26 26
7 6 8 10 10 9 5 4 8 6 6 11 13 11 11 11 10 10 10 9 6 4 6 4 3 5 3 2 1 1 1 1 1 4 7 8 9 9 10 12 13 13 12 12 12 11 11 10 11 11 11 11 8 7 5 3 4 4 5 6 7 8 9 10 12 13 14 16 17 19 20 21 22 23 24 25 26 26 27 27 28 28 27 27 26 26
9 8 9 9 9 7 4 4 7 7 9 13 13 10 10 12 12 10 11 10 5 4 5 1 3 4 5 4 1 3 2 3 4 6 6 8 9 9 10 10 12 14 13 13 13 12 11 11 11 11 11 11 8 7 5 3 4 4 5 6 6 7 8 10 11 12 14 15 17 18 19 20 21 22 23 24 25 26 27 27 28 28 27 27 26 25
10 10 12 13 12 10 9 8 8 9 12 13 12 11 11 13 13 11 12 10 8 9 6 1 1 5 5 3 2 3 5 7 7 7 7 10 13 11 9 8 11 15 15 14 14 13 12 12 11 10 11 10 9 8 6 4 3 4 4 5 6 7 8 9 11 12 13 15 16 17 19 20 20 21 23 24 25 25 26 27 27 28 27 26 25 24
13 13 14 15 15 15 14 13 12 12 14 14 15 15 14 13 13 13 14 12 10 11 7 2 4 6 6 5 6 7 7 7 6 6 6 10 14 14 11 9 10 13 14 14 15 14 13 12 11 10 10 10 9 8 6 4 3 3 4 4 5 6 7 8 10 11 13 14 15 17 18 19 20 21 22 23 24 25 26 26 27 27 27 26 24 24
13 16 16 15 17 16 15 15 15 15 16 16 18 18 15 16 16 15 15 13 12 13 10 7 8 9 9 8 8 7 6 4 4 7 8 8 12 15 13 12 11 12 13 14 16 15 15 14 11 9 9 9 10 9 7 5 4 4 4 4 5 5 6 8 9 10 12 13 15 16 17 18 19 20 22 23 23 24 25 26 27 27 26 25 24 23
12 14 14 13 16 16 15 15 15 16 18 19 18 19 19 20 18 13 12 14 13 13 11 10 10 11 10 10 9 7 5 3 2 5 10 9 9 12 13 11 11 12 11 14 17 16 16 15 11 8 9 9 9 10 8 6 4 4 4 4 4 5 6 8 9 10 11 13 14 15 16 18 19 19 21 22 23 24 25 26 26 26 26 25 23 23
12 13 11 11 14 15 15 15 16 17 19 19 19 19 19 21 20 15 12 14 15 15 14 12 12 11 8 7 8 6 4 5 3 5 10 10 9 11 13 12 11 12 11 13 17 18 17 16 12 8 8 9 9 10 9 7 5 5 5 5 5 5 6 7 8 9 11 12 13 15 16 17 18 19 20 21 22 23 24 25 25 26 26 24 23 22
11 12 12 13 15 16 15 15 17 19 19 18 18 18 16 16 17 15 14 16 16 16 14 12 11 9 5 5 5 5 5 6 7 9 11 12 12 12 15 15 11 13 15 13 16 19 18 16 13 9 8 9 9 10 9 8 6 5 5 5 5 5 5 7 8 9 10 11 13 14 15 16 17 18 19 20 21 22 23 24 24 25 25 24 22 22
10 12 14 15 16 15 13 14 18 20 17 14 13 12 11 11 12 13 15 16 16 15 14 12 10 8 7 6 4 5 8 10 11 13 11 13 17 17 17 17 13 14 18 16 14 16 18 17 14 10 9 9 9 10 10 9 7 5 6 5 5 5 5 6 7 8 10 11 12 14 15 16 16 17 19 19 20 21 22 23 23 24 24 23 21 20
17 15 13 14 16 16 14 14 15 15 12 12 12 11 12 12 11 12 15 15 13 14 13 13 12 10 9 11 9 9 14 13 10 9 7 9 15 14 13 14 14 16 22 22 17 15 17 18 16 13 10 9 10 11 10 9 7 6 6 6 5 5 5 6 7 8 9 11 12 13 15 15 16 17 18 18 19 20 21 21 22 23 23 22 20 19
22 19 16 16 16 16 14 10 8 9 12 15 15 13 13 15 16 16 16 15 14 14 13 13 12 10 9 11 11 11 16 15 10 10 12 12 11 9 7 8 9 15 23 28 23 17 16 18 17 14 11 10 10 11 11 9 8 6 6 6 5 5 5 5 6 8 9 10 12 13 14 15 15 16 17 18 18 19 20 20 21 22 22 21 20 18
22 20 18 17 15 15 14 11 8 12 17 17 14 14 16 18 17 15 15 15 13 12 12 11 11 10 9 9 9 9 13 16 12 10 14 15 12 9 6 6 7 13 21 27 26 22 20 18 17 15 12 11 12 12 11 10 8 6 6 6 5 5 4 5 6 7 8 10 11 12 14 14 15 15 16 17 17 18 19 20 20 21 22 21 20 19
22 20 18 18 17 16 17 18 17 18 19 17 16 17 18 16 12 12 15 17 13 11 12 10 7 8 9 7 8 11 13 12 8 5 9 14 11 7 5 5 8 16 21 23 25 24 20 17 17 16 14 13 13 13 12 10 8 7 6 6 5 5 4 4 6 7 8 10 11 12 13 13 14 15 15 16 17 17 18 19 19 21 21 21 20 19
24 23 19 17 17 18 18 18 16 13 13 16 17 16 14 10 8 11 15 16 13 12 12 9 5 7 8 4 6 12 13 9 6 5 8 11 9 8 7 3 7 18 22 21 21 20 16 15 18 19 17 15 15 14 12 11 9 7 6 6 5 4 3 4 5 6 8 9 10 12 13 13 13 14 14 15 16 17 18 18 18 19 20 20 20 19
22 22 19 16 16 18 18 16 14 12 13 16 16 12 11 11 11 12 11 13 13 9 6 4 2 6 9 8 10 14 14 10 8 9 13 15 11 11 9 2 10 19 20 17 16 14 13 16 19 20 18 16 15 14 13 11 9 7 6 6 5 4 3 4 5 6 7 9 10 11 12 12 13 13 14 14 15 16 17 17 17 18 19 19 19 20
20 19 18 19 19 21 20 18 18 18 17 16 14 11 11 12 13 11 7 8 9 6 6 7 6 8 10 10 11 12 11 9 9 11 16 17 13 11 8 6 15 19 16 14 12 11 13 18 20 19 17 16 15 14 13 11 9 7 6 6 5 3 3 3 4 5 7 8 10 11 11 12 12 13 13 14 14 15 16 17 17 18 18 19 19 20
16 15 17 21 23 21 20 20 20 21 21 17 13 13 12 10 10 10 8 9 12 12 11 11 10 11 13 13 13 12 12 11 10 10 14 17 14 11 6 11 18 17 13 9 9 10 14 18 18 18 17 15 15 15 13 11 8 7 6 6 4 3 2 3 4 5 6 8 10 10 11 11 12 12 13 13 13 15 16 16 17 17 18 18 18 19
14 15 17 22 23 20 21 23 22 23 25 19 11 11 13 10 8 8 10 12 13 13 12 13 14 14 16 17 17 15 13 11 10 10 11 13 13 10 7 11 17 15 8 5 6 10 15 16 16 16 16 15 15 14 12 10 8 6 6 6 4 2 2 2 4 5 6 8 9 10 11 11 11 12 12 12 13 14 15 16 16 16 17 17 18 18
12 14 15 18 19 17 19 21 17 17 21 18 12 11 13 12 9 9 11 11 9 10 11 14 16 16 15 17 16 14 14 11 7 7 8 10 12 12 10 12 14 9 3 3 6 10 12 13 14 14 14 14 13 12 10 8 7 6 6 5 4 2 1 2 3 5 6 8 9 10 10 11 11 11 11 11 12 13 15 16 16 16 16 16 17 18
14 16 17 16 16 16 18 18 15 15 17 15 13 13 14 14 12 10 12 12 9 8 8 11 14 16 16 16 14 13 13 10 6 5 6 9 12 12 11 13 11 5 3 5 7 9 10 11 12 12 12 12 12 11 9 7 6 6 6 5 4 2 1 2 3 5 6 8 8 9 10 10 10 11 11 11 11 12 14 15 16 16 15 16 17 17
15 16 17 18 18 19 21 20 18 17 14 12 13 13 13 14 14 13 16 17 13 9 10 14 17 17 17 17 16 14 13 10 9 8 7 8 12 12 13 13 7 3 5 8 8 9 9 9 10 11 11 11 10 9 8 6 5 6 6 5 4 2 1 2 3 4 6 7 8 8 9 9 10 10 10 10 10 11 13 15 16 16 15 16 16 17
16 16 18 19 19 21 25 26 24 22 19 18 20 19 16 17 17 16 18 20 20 15 12 13 16 17 18 20 18 16 15 12 10 8 8 10 13 13 13 10 5 7 9 8 8 9 9 9 10 11 10 10 9 8 6 5 6 6 6 5 4 2 1 2 3 4 5 7 7 8 8 9 9 10 10 10 10 11 12 14 15 16 15 15 16 16
18 20 22 20 18 20 24 25 23 24 23 22 25 26 26 27 28 25 22 24 25 20 13 12 14 15 18 22 20 17 16 12 8 6 8 10 13 13 11 7 7 10 9 8 9 9 8 9 10 9 8 8 7 6 5 6 6 6 6 5 4 3 2 1 2 4 5 6 6 7 8 8 9 10 10 10 10 11 12 13 15 16 15 15 15 16
17 21 22 19 18 21 23 20 20 23 22 20 22 25 26 30 33 31 27 27 30 27 19 17 17 14 14 19 20 18 16 11 8 7 8 11 14 13 9 7 10 11 10 9 10 8 7 9 9 8 8 8 6 5 6 6 6 6 6 5 4 3 2 2 2 3 5 5 6 7 7 7 8 9 10 10 10 11 11 13 14 15 16 16 15 15
20 21 20 17 18 22 24 21 22 25 22 19 19 18 20 24 26 24 23 26 31 32 27 23 22 20 17 17 17 16 15 13 11 9 10 13 14 12 8 9 11 11 10 10 9 7 8 10 9 8 8 8 6 5 6 6 6 7 6 5 4 4 3 2 2 3 4 5 5 5 6 6 7 8 9 10 10 11 11 12 13 14 15 16 16 15
23 23 22 21 22 25 25 23 24 27 26 23 20 16 16 20 21 20 20 22 25 29 30 26 25 24 20 18 17 16 16 17 16 12 10 12 12 11 9 10 10 11 11 11 9 8 9 10 9 9 9 7 6 6 5 6 7 7 5 5 5 4 4 3 3 3 4 4 4 4 4 5 6 7 8 9 9 10 11 11 12 13 14 15 15 15
28 27 26 26 27 27 26 23 23 26 27 28 26 23 23 24 23 23 24 21 19 22 24 24 24 22 21 21 21 18 16 17 17 13 11 12 11 10 9 9 10 11 11 11 10 9 10 10 9 8 8 7 6 6 5 5 7 6 6 6 5 5 5 4 3 3 3 3 2 2 3 4 5 6 7 7 8 9 10 11 12 13 13 14 15 15
Wind_Direction
352 350 347 325 304 342 31 30 347 34 106 131 129 120 116 105 106 116 127 150 165 134 125 134 139 145 152 158 164 154 152 162 174 177 152 128 119 119 124 10 318 319 331 332 335 339 343 348 347 353 9 15 14 12 14 19 19 20 23 27 29 28 26 21 18 17 14 11 8 6 6 4 3 2 2 1 359 357 356 354 352 351 351 351 352 352
358 359 352 10 357 11 52 49 37 47 62 92 94 103 107 97 102 114 120 136 160 132 130 143 138 147 156 154 165 165 162 173 178 178 157 144 141 140 155 247 298 313 319 321 326 331 339 349 349 354 11 16 15 15 18 21 20 22 25 28 28 27 25 20 19 17 14 11 8 7 6 4 3 3 3 1 359 358 356 354 353 352 352 353 354 354
9 7 359 20 13 14 50 44 68 56 40 58 73 80 80 81 105 117 116 130 157 122 132 152 138 143 156 156 161 167 182 187 177 182 168 158 160 163 192 229 285 303 306 310 318 328 341 347 346 355 12 16 15 18 21 22 23 24 25 28 28 26 24 20 19 17 13 9 7 8 7 5 5 4 3 1 359 358 356 355 354 354 354 355 355 355
5 14 11 20 10 355 35 34 33 51 46 56 69 75 66 64 104 110 112 127 113 110 137 155 129 133 149 152 154 174 201 183 153 178 175 165 173 185 207 233 274 278 285 299 310 326 339 342 344 356 12 16 17 20 22 23 24 25 26 28 28 26 23 20 18 15 11 8 8 9 8 8 7 5 3 1 360 358 356 356 355 355 356 356 356 356
5 12 0 19 32 359 24 38 26 44 49 52 58 68 69 74 95 92 103 120 78 106 168 156 121 139 158 157 158 178 194 161 161 183 187 189 185 190 219 249 269 271 281 291 302 322 334 339 345 356 10 16 20 21 21 24 26 25 27 29 28 26 22 19 17 13 10 8 9 10 9 9 7 5 3 0 359 358 357 357 356 357 357 356 357 357
13 22 347 351 32 355 2 26 31 44 37 64 67 51 56 83 97 86 86 92 49 62 171 184 153 159 176 170 166 171 179 174 178 189 191 197 196 199 225 249 263 275 292 293 297 317 336 341 345 356 9 17 21 21 21 24 26 25 27 29 28 26 21 18 16 11 10 10 9 10 10 9 7 5 3 1 360 359 358 359 359 359 358 358 359 359
22 24 336 336 15 359 3 16 27 40 8 43 59 36 40 66 80 88 82 57 33 12 26 197 175 165 178 176 174 173 179 183 185 192 191 200 217 216 221 239 255 272 287 282 290 315 337 341 345 359 12 18 19 18 21 24 25 25 26 29 28 25 21 16 14 10 10 10 9 11 11 9 8 5 3 2 0 359 360 360 0 1 360 360 0 1
29 14 340 356 27 15 10 17 26 22 2 33 49 39 41 36 41 64 28 8 2 100 67 188 170 175 188 177 178 174 175 184 190 194 192 203 222 230 241 261 259 272 292 276 284 317 338 340 351 8 14 16 16 17 21 22 24 25 25 28 27 24 20 15 12 11 11 10 11 12 12 10 8 5 4 2 0 360 1 2 2 2 1 1 1 2
29 1 341 10 43 25 16 36 39 19 11 31 41 41 36 6 3 12 12 11 320 135 222 235 214 225 199 174 172 171 176 189 194 194 197 203 216 237 258 271 246 251 303 280 287 315 333 347 2 17 16 11 13 16 19 20 22 24 24 26 27 23 18 13 11 12 11 11 12 13 12 10 8 6 5 3 1 1 3 4 4 3 3 3 2 3
30 3 341 11 36 30 35 47 9 9 29 44 39 36 28 1 352 332 0 31 342 284 226 218 199 174 173 162 166 174 185 193 196 200 201 199 212 241 250 214 211 195 196 250 278 306 328 5 16 19 13 6 12 15 15 20 22 23 24 25 26 21 15 13 11 12 12 11 13 12 12 11 9 8 6 3 2 3 5 5 4 5 5 4 3 4
12 10 12 24 29 26 36 43 10 9 26 26 21 22 15 359 358 338 0 37 352 325 174 177 190 235 194 159 171 183 192 194 195 201 200 194 206 229 210 186 197 190 193 235 266 307 351 13 17 13 7 3 11 13 12 19 23 22 24 24 23 18 13 13 11 11 12 12 13 12 12 11 9 8 6 4 4 5 6 6 6 7 7 5 4 4
353 359 11 28 30 18 333 12 46 23 356 1 5 15 11 340 341 8 47 98 80 1 354 121 149 191 143 160 174 178 190 191 191 197 194 190 197 211 204 180 181 207 222 233 253 341 6 9 7 360 359 3 8 11 14 20 24 23 23 24 20 17 13 11 10 11 12 12 13 13 12 11 10 8 6 6 7 7 7 7 7 8 8 7 5 4
350 332 282 330 18 347 318 288 21 7 16 11 351 349 357 343 342 20 355 50 90 79 34 51 93 128 153 190 172 148 170 181 188 193 187 187 192 201 200 173 175 220 241 216 237 339 354 353 355 347 354 8 5 9 16 19 25 24 23 24 18 16 13 9 9 11 11 12 13 13 12 11 10 8 7 7 8 9 8 8 9 10 10 8 6 6
312 318 291 286 194 323 358 59 128 25 3 342 343 342 341 344 3 10 353 24 80 84 72 12 2 51 1 30 137 127 142 164 181 182 178 186 197 202 196 180 180 207 224 211 251 326 336 329 341 346 357 10 3 8 17 18 25 26 24 23 17 15 11 8 10 10 11 12 13 13 12 11 11 9 9 8 9 10 10 11 11 11 11 8 7 8
21 358 291 274 265 289 344 39 91 43 337 329 349 350 333 339 15 0 319 12 45 62 74 81 82 49 6 44 96 123 137 141 161 168 171 185 203 206 189 184 184 196 214 230 271 306 307 314 340 355 0 5 2 8 16 18 25 25 25 24 17 14 10 7 9 10 11 12 12 13 12 12 11 10 10 9 9 11 11 12 13 12 12 9 8 9
13 326 267 260 307 224 218 359 27 102 38 358 13 356 325 348 32 241 285 23 40 11 72 94 80 295 287 55 72 129 140 132 152 164 170 183 204 207 182 187 190 192 217 241 264 280 291 336 354 358 358 358 360 7 12 17 24 25 26 24 17 14 9 7 9 10 10 11 12 13 12 12 12 11 12 10 10 11 12 14 14 13 12 10 8 10
290 301 264 222 249 219 221 260 245 191 122 149 341 326 267 333 21 341 335 52 64 306 84 107 19 33 74 96 119 151 149 142 153 160 168 182 207 205 180 190 192 190 215 236 252 272 312 352 354 352 352 351 354 360 6 15 22 24 26 24 17 13 9 8 9 9 10 10 12 13 12 12 12 11 13 12 12 13 13 14 14 13 12 10 9 10
320 324 215 217 257 230 246 267 234 270 295 195 270 310 266 279 21 0 348 64 60 310 86 104 71 69 81 176 139 150 155 162 163 162 174 192 215 202 182 192 199 199 211 226 254 293 325 342 345 344 345 347 348 348 357 12 21 22 25 25 17 13 9 7 8 9 9 10 11 12 12 12 11 12 14 14 14 14 14 15 14 13 12 11 11 10
334 323 191 180 329 187 221 293 246 245 257 251 281 306 279 261 16 11 323 42 33 355 349 46 116 105 147 162 114 165 177 182 177 173 187 209 221 194 187 194 204 210 206 207 243 292 315 325 332 337 340 342 341 343 354 8 19 20 25 26 18 14 10 5 7 9 9 10 11 11 12 12 11 12 14 15 15 15 15 15 15 13 12 12 12 11
314 305 209 108 0 305 263 280 259 238 252 268 281 294 297 302 355 353 349 34 59 148 310 309 171 80 82 104 11 211 187 188 187 185 197 217 217 192 197 200 204 214 212 210 242 279 297 311 325 331 335 335 333 340 348 357 14 20 23 25 19 15 9 3 7 8 8 10 10 11 12 12 12 12 14 15 16 16 16 16 16 13 12 13 12 11
278 275 265 279 299 292 289 291 282 286 289 240 257 284 310 330 322 300 356 34 60 184 206 263 206 91 89 43 7 38 173 190 193 194 197 208 217 208 209 208 208 217 225 230 252 275 291 308 321 324 328 329 328 333 338 351 14 18 19 22 21 15 7 3 6 8 8 10 9 10 12 12 12 13 14 15 16 17 17 17 16 14 12 13 12 12
275 272 287 294 283 275 302 316 279 280 302 280 267 286 284 289 312 314 339 354 319 221 180 213 214 131 79 10 14 15 302 198 181 192 194 197 219 231 220 217 220 229 238 245 258 278 293 302 312 317 321 324 323 326 333 352 11 14 17 22 21 14 5 3 6 7 8 9 8 9 11 12 13 13 14 16 16 17 17 17 17 15 13 13 12 13
262 271 291 295 293 290 298 312 283 274 303 300 290 296 286 275 297 297 278 289 326 314 240 205 60 144 334 352 9 5 352 138 147 174 198 198 221 249 239 228 226 233 243 246 251 270 284 290 302 312 316 320 323 323 331 351 6 13 17 20 20 12 4 3 6 6 7 8 7 7 10 12 13 13 14 15 16 17 17 17 17 15 13 12 12 13
254 264 286 285 291 294 280 294 301 281 301 307 299 295 297 294 278 273 285 309 326 330 349 60 77 246 285 348 19 11 2 44 123 190 208 205 222 244 241 233 230 232 240 243 246 263 277 283 295 305 312 319 322 321 330 349 2 8 13 16 16 9 4 4 4 4 6 7 6 7 10 12 13 14 14 15 16 17 16 17 17 15 12 12 13 13
289 282 292 290 292 289 260 292 314 302 308 320 315 302 302 308 295 281 294 302 296 333 16 59 177 238 281 312 244 190 252 285 209 214 218 214 222 232 227 229 237 239 239 244 253 267 273 279 291 300 311 319 319 319 327 339 351 1 7 10 11 8 4 3 2 3 5 6 6 7 9 11 12 13 14 15 16 16 17 17 17 15 13 12 12 13
296 283 286 294 300 304 307 317 310 298 299 309 310 299 299 311 311 301 299 301 308 345 353 81 197 269 308 311 246 154 191 239 236 246 242 215 212 227 235 235 241 248 250 251 261 270 267 272 287 298 311 321 318 317 321 328 341 350 358 2 6 6 2 360 1 2 4 5 6 7 9 10 11 13 14 15 15 15 17 18 17 16 14 12 13 13
285 280 278 280 282 287 291 289 288 291 295 298 296 287 289 302 312 317 308 305 322 328 326 101 266 301 314 308 197 206 249 247 244 264 261 232 218 224 255 259 239 248 261 257 258 263 258 264 282 298 313 320 318 315 312 317 332 335 345 355 359 1 359 358 359 1 2 4 6 7 9 9 10 12 14 14 15 16 17 18 18 16 14 13 13 14
273 273 273 276 277 276 278 282 286 287 284 285 287 285 287 292 294 296 293 293 304 301 292 326 313 299 307 290 251 255 262 241 245 279 288 258 229 225 257 271 244 255 268 258 252 253 249 258 276 296 315 319 317 314 307 306 321 324 332 343 349 355 356 355 358 359 1 3 6 8 8 8 9 12 14 15 14 15 17 18 18 17 14 13 13 15
265 270 271 274 277 275 278 284 282 277 276 280 288 292 293 290 283 275 276 283 287 280 279 299 301 297 301 283 265 275 265 233 262 278 274 261 230 232 259 263 253 269 269 249 246 243 241 252 270 292 313 318 315 312 307 302 309 317 323 329 340 350 352 353 355 358 0 3 6 8 8 8 9 11 14 15 14 14 17 18 18 17 14 12 13 16
264 271 272 276 282 281 280 282 279 279 281 282 290 297 299 303 304 295 290 294 291 288 297 309 309 311 309 291 291 297 264 249 301 251 251 263 255 256 265 256 259 279 266 241 241 239 239 249 262 286 307 315 315 312 307 302 301 311 315 318 332 343 347 351 353 356 360 3 5 8 9 8 9 12 14 15 14 14 17 17 17 17 14 11 13 17
264 270 277 286 293 289 284 283 282 284 286 285 289 289 291 310 321 314 307 307 302 300 304 308 309 311 312 309 315 315 287 287 281 224 239 259 266 268 269 266 272 281 271 244 235 234 239 248 257 278 299 309 315 312 307 301 298 307 308 310 324 336 342 347 351 355 359 2 5 7 9 9 10 12 14 15 14 15 16 17 17 16 15 13 13 17
262 270 279 284 284 282 285 292 292 292 292 289 289 280 277 301 312 299 297 306 305 303 301 299 301 301 312 342 330 306 304 298 270 261 256 238 225 236 257 267 270 268 266 254 236 234 240 247 254 267 286 302 312 313 309 301 293 300 303 305 317 326 337 343 348 354 358 1 5 7 9 11 11 13 15 15 14 14 16 16 16 16 16 14 15 17
260 270 278 276 271 270 278 287 293 296 293 286 289 286 279 292 299 293 296 301 304 308 304 294 291 294 307 320 300 263 281 282 274 282 275 234 220 223 239 253 254 251 254 253 245 244 246 248 251 256 275 295 307 312 310 301 294 298 298 300 310 318 330 340 345 353 357 0 5 7 10 12 12 14 16 15 14 14 15 16 16 16 17 16 17 19
259 263 270 267 263 267 271 274 285 289 278 273 282 279 272 275 286 295 299 300 300 301 300 295 293 294 290 286 281 275 280 284 283 284 280 253 242 236 241 251 245 238 246 255 258 255 251 249 246 249 268 289 303 311 311 302 296 296 295 297 301 309 323 336 343 352 357 360 5 9 11 13 13 15 16 15 14 14 15 15 15 16 17 17 18 21
260 259 264 263 259 264 264 259 266 261 259 273 280 272 267 269 271 278 287 293 295 295 302 309 308 301 287 280 278 275 280 289 287 265 263 272 275 271 276 272 238 220 237 252 258 258 259 256 248 248 264 282 296 309 312 305 299 294 292 295 295 302 318 332 342 351 356 1 6 10 11 13 14 15 16 15 14 14 15 14 14 16 17 17 19 23
259 258 260 257 254 259 255 239 236 259 270 275 266 258 264 268 268 276 286 288 289 291 299 309 314 306 300 300 291 280 291 299 294 263 249 256 275 288 280 272 244 226 236 247 252 257 266 266 255 251 260 274 291 304 309 307 301 292 290 290 289 298 313 328 342 352 357 2 8 10 11 13 14 15 16 15 14 14 14 14 14 15 15 15 19 24
253 251 251 249 247 252 256 252 254 266 272 262 250 260 274 278 277 279 281 283 289 294 284 279 295 302 302 316 309 301 310 307 293 267 239 240 251 258 240 230 234 239 244 246 248 256 265 262 253 250 254 267 285 298 305 305 300 290 287 285 283 292 310 329 344 353 358 5 9 10 11 13 14 16 16 14 14 14 14 13 14 14 13 14 17 23
250 246 242 245 247 247 254 262 263 264 263 258 259 270 277 277 263 254 266 280 291 298 284 261 258 287 284 275 281 295 310 306 279 279 272 267 268 261 265 271 219 233 244 248 249 256 257 243 241 245 250 262 279 294 302 302 298 289 282 278 278 288 309 331 347 355 0 6 9 9 11 13 14 16 16 13 13 14 14 13 13 13 12 12 16 22
249 248 241 243 251 252 256 265 265 261 266 271 272 261 240 236 240 243 264 285 287 292 288 248 248 305 290 254 250 280 300 303 300 298 288 291 296 283 286 283 203 228 249 258 260 262 247 232 234 240 248 261 277 292 299 299 296 287 276 273 274 282 311 335 349 357 2 7 9 8 10 12 14 16 15 12 13 14 13 13 12 13 12 12 15 22
247 251 242 237 244 250 254 262 266 266 271 276 271 253 237 245 255 254 264 285 278 258 237 238 257 295 289 255 246 274 289 280 282 292 286 286 289 290 289 212 209 236 259 263 264 262 239 232 234 239 250 263 277 289 296 297 293 280 269 268 268 276 315 339 349 357 2 6 8 9 10 12 14 15 13 13 14 14 13 13 13 12 12 12 16 21
244 244 235 234 241 244 244 253 266 271 274 277 269 246 230 228 235 241 254 276 281 274 266 265 270 274 269 256 255 271 277 262 256 267 282 286 286 290 275 215 222 248 264 257 257 250 234 231 233 238 251 264 276 287 294 294 288 274 264 263 261 274 318 339 348 357 3 7 8 8 9 11 13 13 13 13 14 14 13 13 13 13 12 13 16 21
239 239 239 243 248 247 242 248 262 270 270 270 261 232 222 213 212 240 271 284 287 288 287 287 288 281 268 263 267 267 258 253 256 262 277 291 293 295 280 238 239 253 257 237 238 234 231 231 233 241 254 265 277 289 293 289 282 267 259 258 255 271 315 336 347 356 2 7 8 8 8 11 12 11 12 13 15 15 15 14 13 13 13 14 16 20
245 250 255 252 248 245 241 242 249 261 263 259 247 235 235 231 233 267 293 295 300 308 297 287 295 298 282 270 272 265 246 242 260 273 275 285 291 293 284 264 260 261 237 208 231 230 231 235 239 248 260 269 280 289 291 286 276 260 254 252 250 264 308 331 346 357 4 7 8 7 9 12 11 9 11 13 15 15 15 15 15 13 14 15 17 20
264 260 263 259 245 235 234 232 234 251 262 261 255 255 256 248 244 265 281 276 284 309 295 280 294 304 291 273 267 260 247 238 245 259 259 273 286 288 276 269 271 262 205 225 237 231 231 240 246 253 261 271 283 289 288 282 267 253 251 247 244 255 296 328 346 359 5 7 8 7 9 11 10 9 10 11 13 14 14 15 15 14 14 16 19 21
267 255 251 253 251 247 248 249 250 255 260 263 262 264 269 262 255 265 272 265 262 273 277 281 291 296 290 282 277 271 258 241 237 241 240 263 283 281 270 269 268 199 208 229 230 228 233 241 246 251 261 275 287 287 283 275 259 252 249 244 242 248 275 329 353 2 4 7 7 8 9 10 10 9 10 10 11 11 12 14 16 15 15 16 18 21
264 263 258 257 257 255 253 251 251 251 255 265 271 272 271 262 254 264 281 281 277 274 272 281 289 289 284 285 287 283 268 248 241 238 229 251 270 269 266 268 233 195 214 221 216 225 233 235 241 252 267 281 286 283 278 266 257 253 248 243 243 243 260 327 355 359 2 7 7 7 10 11 11 10 10 10 9 7 9 13 16 16 15 16 18 20
261 267 267 264 263 262 260 259 259 261 264 270 273 272 271 266 261 266 280 288 286 279 259 250 264 275 279 279 280 278 267 254 249 240 224 242 259 260 260 256 210 201 210 208 212 225 229 232 246 261 275 281 282 280 273 263 258 256 248 243 243 242 259 315 348 354 0 5 7 10 12 12 13 14 12 11 10 7 7 11 15 16 16 16 17 19
255 261 264 265 265 265 268 274 278 275 271 270 270 270 271 272 268 267 273 279 279 274 258 243 243 247 261 269 271 272 270 267 271 264 238 240 253 255 248 227 208 204 203 202 212 221 225 237 251 265 274 278 278 273 268 264 259 256 250 244 241 243 262 292 330 351 359 4 8 13 15 15 17 17 16 15 12 8 7 9 13 15 16 16 17 17
256 260 264 268 268 262 261 268 276 274 266 260 262 266 272 275 272 267 267 270 269 265 259 253 251 252 258 263 262 262 263 265 270 261 233 233 245 246 233 219 210 200 194 199 209 215 223 238 252 263 270 275 274 269 266 262 258 258 254 248 245 250 264 280 313 344 356 2 10 17 18 20 23 22 20 20 16 11 9 9 10 13 15 15 15 15
257 260 261 265 269 267 264 266 272 273 268 260 254 249 256 266 267 262 261 265 267 266 262 257 255 255 257 257 253 250 251 256 261 252 224 225 239 237 221 217 210 194 191 199 206 210 222 237 251 260 266 272 273 268 262 260 262 264 261 255 252 256 264 274 299 333 347 354 7 20 21 23 28 26 23 22 18 13 11 8 7 10 11 12 13 13
258 260 262 264 267 268 268 265 261 265 269 267 261 256 258 263 265 263 260 261 267 270 266 260 255 249 246 249 249 244 244 250 249 237 218 220 232 229 215 211 208 196 194 201 203 209 224 238 249 259 267 273 272 266 264 267 270 271 270 267 262 261 265 270 284 307 328 337 346 12 24 24 27 24 19 18 15 11 10 7 5 5 6 8 10 10
Height
3146 3145 3144 3143 3141 3141 3139 3138 3139 3139 3138 3138 3138 3138 3138 3139 3140 3142 3142 3143 3142 3141 3142 3143 3143 3144 3144 3144 3144 3145 3145 3146 3146 3146 3145 3145 3146 3146 3146 3145 3145 3145 3145 3145 3144 3144 3144 3144 3143 3142 3141 3139 3138 3137 3136 3135 3134 3133 3132 3131 3130 3129 3128 3127 3126 3125 3124 3122 3121 3119 3117 3115 3113 3111 3109 3107 3104 3102 3100 3098 3096 3093 3091 3088 3085 3081
3146 3145 3144 3143 3143 3142 3141 3140 3141 3141 3140 3139 3139 3139 3139 3139 3140 3142 3142 3143 3142 3142 3143 3143 3144 3145 3145 3145 3145 3146 3146 3146 3146 3146 3146 3146 3146 3146 3146 3146 3145 3145 3145 3145 3144 3144 3144 3144 3143 3142 3141 3140 3139 3137 3136 3135 3134 3133 3132 3131 3131 3130 3129 3128 3126 3125 3124 3122 3121 3119 3117 3115 3113 3111 3109 3107 3105 3103 3100 3098 3096 3093 3090 3086 3083 3080
3145 3145 3144 3144 3144 3143 3142 3142 3141 3140 3140 3140 3140 3139 3139 3140 3141 3142 3142 3143 3142 3142 3143 3143 3143 3144 3144 3145 3145 3146 3146 3146 3145 3146 3146 3146 3147 3146 3146 3146 3145 3145 3145 3144 3144 3144 3144 3144 3143 3142 3141 3140 3139 3138 3137 3136 3135 3134 3133 3132 3131 3130 3129 3128 3126 3125 3124 3123 3121 3119 3117 3115 3113 3111 3109 3107 3105 3102 3100 3098 3095 3092 3089 3085 3082 3079
3146 3146 3145 3145 3144 3143 3142 3142 3141 3141 3141 3140 3140 3140 3141 3141 3141 3142 3143 3143 3142 3143 3143 3143 3143 3144 3144 3144 3145 3146 3146 3145 3146 3146 3146 3146 3147 3146 3146 3145 3145 3145 3145 3144 3144 3144 3144 3144 3143 3142 3141 3140 3139 3138 3137 3136 3135 3134 3133 3132 3131 3130 3129 3128 3127 3126 3125 3123 3121 3119 3117 3115 3113 3111 3109 3107 3105 3102 3100 3097 3094 3091 3088 3085 3082 3079
3147 3147 3146 3145 3145 3143 3143 3143 3143 3142 3141 3141 3141 3141 3141 3142 3142 3142 3143 3144 3144 3144 3143 3142 3144 3145 3144 3145 3145 3146 3146 3146 3147 3148 3147 3147 3147 3146 3146 3145 3145 3144 3144 3144 3144 3144 3144 3144 3143 3142 3141 3140 3139 3138 3137 3137 3136 3135 3134 3132 3131 3130 3129 3128 3127 3126 3125 3123 3121 3119 3117 3115 3113 3111 3109 3107 3105 3103 3100 3097 3094 3091 3088 3085 3082 3079
3148 3148 3146 3145 3145 3145 3144 3144 3144 3143 3142 3142 3142 3142 3142 3143 3143 3144 3143 3144 3144 3144 3144 3143 3145 3145 3145 3145 3146 3146 3146 3147 3148 3148 3148 3147 3146 3146 3145 3145 3145 3144 3144 3144 3143 3144 3144 3144 3143 3142 3141 3140 3139 3138 3138 3137 3136 3135 3134 3133 3132 3131 3130 3129 3128 3127 3125 3124 3122 3119 3117 3115 3113 3111 3109 3107 3105 3102 3100 3097 3094 3090 3087 3084 3082 3079
3149 3148 3146 3145 3145 3146 3146 3145 3144 3143 3143 3143 3143 3144 3144 3143 3144 3144 3144 3144 3144 3145 3145 3144 3144 3144 3145 3145 3146 3146 3147 3148 3148 3148 3148 3148 3147 3146 3145 3145 3145 3144 3144 3144 3143 3143 3144 3143 3143 3142 3141 3140 3139 3139 3138 3137 3137 3135 3134 3133 3132 3131 3130 3129 3128 3127 3126 3124 3122 3119 3117 3115 3113 3111 3109 3107 3104 3102 3099 3096 3093 3090 3087 3084 3081 3078
3150 3148 3146 3146 3146 3146 3146 3146 3145 3145 3145 3145 3145 3145 3145 3144 3145 3145 3144 3144 3144 3144 3145 3145 3145 3144 3145 3146 3146 3147 3147 3148 3148 3148 3149 3148 3147 3146 3145 3145 3145 3144 3144 3143 3142 3143 3143 3143 3142 3141 3140 3140 3140 3139 3139 3138 3137 3136 3134 3133 3133 3132 3131 3130 3129 3128 3126 3124 3122 3119 3117 3115 3114 3112 3109 3107 3104 3102 3099 3096 3093 3090 3087 3084 3081 3078
3151 3149 3146 3146 3146 3146 3146 3146 3146 3146 3146 3146 3146 3146 3146 3144 3145 3144 3143 3144 3145 3144 3144 3145 3146 3145 3145 3146 3146 3147 3147 3147 3148 3148 3148 3148 3147 3146 3145 3145 3145 3144 3144 3143 3142 3142 3142 3142 3142 3141 3140 3140 3140 3139 3139 3138 3137 3136 3135 3134 3133 3132 3132 3131 3129 3128 3126 3124 3122 3119 3118 3116 3114 3112 3109 3107 3105 3102 3100 3097 3094 3091 3087 3084 3081 3078
3151 3149 3147 3147 3146 3146 3146 3147 3147 3146 3147 3147 3146 3146 3146 3145 3145 3144 3143 3144 3145 3145 3145 3146 3146 3145 3145 3145 3146 3147 3147 3147 3147 3147 3147 3147 3147 3146 3146 3146 3145 3145 3145 3143 3142 3142 3142 3142 3141 3140 3140 3140 3140 3140 3139 3139 3137 3136 3136 3134 3134 3133 3132 3131 3130 3128 3126 3124 3122 3120 3118 3116 3114 3112 3110 3108 3105 3103 3100 3097 3094 3091 3088 3085 3082 3079
3151 3149 3148 3147 3147 3147 3147 3148 3148 3147 3147 3147 3146 3146 3146 3146 3145 3144 3144 3144 3146 3147 3146 3146 3147 3146 3145 3145 3145 3145 3145 3146 3146 3146 3147 3147 3147 3146 3146 3147 3146 3146 3145 3143 3142 3142 3142 3141 3141 3140 3141 3141 3140 3140 3140 3139 3138 3137 3136 3135 3134 3134 3133 3132 3130 3128 3127 3124 3122 3120 3118 3117 3115 3113 3111 3109 3106 3103 3100 3097 3094 3091 3088 3085 3082 3080
3151 3150 3149 3149 3148 3148 3148 3147 3148 3148 3148 3147 3146 3146 3146 3146 3145 3144 3144 3144 3148 3152 3150 3147 3148 3147 3146 3145 3145 3145 3145 3145 3145 3146 3147 3147 3147 3146 3146 3147 3147 3146 3145 3143 3142 3142 3141 3141 3141 3141 3141 3141 3140 3140 3140 3139 3138 3137 3136 3135 3135 3134 3133 3132 3130 3129 3127 3125 3123 3121 3119 3117 3115 3113 3111 3109 3106 3103 3100 3098 3095 3092 3089 3086 3083 3081
3151 3151 3150 3150 3149 3148 3148 3148 3148 3149 3149 3149 3148 3148 3148 3146 3145 3147 3145 3144 3150 3154 3152 3150 3149 3147 3147 3146 3145 3145 3146 3146 3146 3146 3147 3147 3147 3147 3147 3147 3148 3147 3146 3144 3142 3141 3141 3141 3142 3142 3141 3141 3140 3140 3140 3139 3138 3137 3136 3136 3135 3134 3134 3132 3131 3129 3127 3125 3123 3121 3119 3118 3116 3114 3112 3109 3107 3104 3101 3098 3095 3092 3090 3087 3084 3081
3150 3150 3151 3150 3149 3149 3149 3149 3149 3149 3150 3150 3151 3151 3152 3149 3149 3151 3148 3145 3150 3153 3151 3150 3148 3147 3147 3146 3145 3146 3146 3147 3147 3147 3147 3147 3147 3147 3147 3147 3148 3147 3146 3144 3142 3141 3141 3141 3142 3142 3141 3141 3140 3140 3140 3139 3138 3137 3137 3136 3136 3135 3134 3133 3131 3130 3128 3126 3123 3121 3120 3118 3117 3115 3112 3109 3107 3104 3102 3099 3096 3093 3090 3087 3084 3081
3150 3151 3151 3150 3149 3149 3149 3149 3149 3150 3150 3151 3152 3153 3154 3153 3154 3154 3150 3147 3151 3152 3150 3149 3148 3148 3148 3147 3146 3147 3146 3147 3147 3147 3147 3147 3147 3147 3148 3148 3148 3147 3145 3143 3142 3142 3143 3142 3142 3142 3141 3141 3140 3140 3140 3139 3138 3138 3137 3136 3136 3135 3134 3133 3132 3130 3128 3126 3124 3122 3120 3119 3117 3115 3112 3109 3107 3104 3102 3099 3096 3093 3090 3087 3084 3081
3150 3150 3150 3150 3149 3149 3150 3149 3149 3150 3150 3150 3151 3151 3151 3152 3153 3152 3150 3150 3152 3151 3150 3149 3148 3148 3147 3146 3147 3147 3147 3148 3148 3147 3147 3147 3147 3147 3148 3148 3148 3147 3145 3143 3143 3142 3143 3143 3142 3141 3141 3141 3140 3140 3139 3139 3138 3138 3137 3136 3136 3135 3135 3133 3132 3130 3129 3127 3124 3122 3121 3119 3118 3115 3113 3110 3107 3104 3102 3099 3096 3094 3091 3088 3085 3082
3148 3148 3148 3149 3148 3149 3150 3150 3149 3150 3150 3150 3151 3149 3149 3150 3151 3150 3149 3150 3152 3151 3151 3150 3148 3147 3147 3146 3146 3147 3147 3148 3148 3148 3147 3146 3146 3146 3147 3148 3148 3147 3146 3144 3144 3142 3142 3142 3141 3141 3141 3141 3141 3140 3140 3139 3139 3138 3137 3136 3136 3136 3135 3133 3132 3131 3129 3127 3125 3123 3121 3120 3118 3116 3113 3110 3107 3104 3102 3099 3097 3094 3092 3089 3086 3083
3147 3147 3147 3148 3148 3148 3149 3149 3149 3148 3149 3150 3150 3148 3148 3149 3149 3149 3149 3150 3153 3153 3151 3150 3149 3147 3147 3146 3146 3147 3148 3148 3148 3148 3147 3146 3145 3146 3147 3148 3148 3147 3146 3145 3143 3142 3141 3141 3141 3141 3141 3141 3141 3140 3140 3139 3139 3138 3137 3136 3136 3136 3135 3134 3132 3131 3129 3127 3125 3123 3122 3120 3118 3116 3114 3111 3108 3105 3103 3100 3097 3095 3092 3090 3087 3084
3147 3147 3147 3148 3148 3147 3148 3149 3149 3148 3148 3149 3149 3148 3148 3148 3147 3148 3148 3149 3155 3158 3154 3151 3149 3148 3148 3148 3147 3148 3148 3148 3149 3148 3147 3146 3146 3147 3148 3148 3148 3147 3146 3144 3142 3141 3141 3141 3141 3141 3141 3141 3141 3140 3140 3139 3139 3138 3137 3136 3136 3136 3135 3134 3133 3131 3129 3127 3125 3124 3122 3120 3118 3116 3114 3111 3109 3106 3104 3101 3098 3096 3093 3091 3088 3085
3147 3147 3147 3148 3148 3148 3148 3148 3148 3149 3149 3149 3149 3147 3147 3147 3147 3148 3148 3147 3153 3159 3157 3152 3149 3148 3148 3148 3148 3148 3148 3148 3148 3148 3148 3146 3147 3148 3148 3148 3147 3146 3145 3144 3142 3141 3141 3141 3142 3141 3141 3141 3141 3140 3140 3139 3139 3138 3137 3137 3136 3135 3135 3134 3133 3131 3129 3127 3125 3124 3122 3120 3118 3117 3114 3112 3110 3107 3105 3102 3100 3097 3094 3091 3089 3086
3148 3147 3147 3148 3148 3147 3147 3147 3148 3149 3148 3148 3149 3148 3148 3149 3147 3147 3147 3147 3149 3152 3152 3150 3149 3148 3148 3148 3148 3148 3147 3147 3147 3148 3148 3148 3147 3147 3147 3147 3147 3146 3145 3144 3142 3142 3141 3141 3141 3141 3141 3141 3141 3140 3140 3139 3139 3138 3137 3137 3136 3135 3135 3134 3133 3131 3129 3127 3126 3124 3123 3121 3119 3117 3115 3113 3111 3108 3106 3103 3100 3098 3095 3092 3090 3087
3148 3147 3147 3147 3147 3146 3146 3147 3147 3147 3147 3147 3147 3147 3147 3148 3147 3146 3146 3146 3146 3146 3146 3147 3148 3148 3148 3148 3148 3147 3146 3146 3147 3147 3148 3148 3147 3147 3146 3147 3146 3145 3144 3144 3142 3142 3141 3141 3141 3141 3141 3141 3141 3140 3140 3139 3139 3138 3138 3137 3136 3135 3135 3134 3133 3131 3129 3128 3126 3125 3123 3121 3119 3117 3115 3113 3111 3109 3106 3104 3101 3099 3096 3093 3091 3088
3147 3147 3147 3146 3146 3145 3145 3145 3146 3147 3147 3147 3146 3146 3145 3145 3146 3146 3145 3145 3144 3144 3144 3145 3148 3149 3149 3149 3149 3148 3147 3146 3146 3147 3147 3147 3147 3146 3145 3146 3146 3145 3144 3144 3143 3142 3142 3142 3141 3141 3141 3141 3140 3140 3140 3139 3138 3138 3137 3137 3136 3135 3135 3134 3133 3131 3130 3128 3127 3125 3123 3121 3120 3118 3116 3114 3112 3110 3107 3104 3102 3099 3097 3094 3092 3089
3146 3147 3147 3146 3145 3145 3144 3145 3146 3146 3147 3146 3145 3145 3145 3144 3144 3144 3144 3144 3144 3144 3144 3146 3149 3149 3147 3147 3148 3148 3147 3147 3147 3147 3146 3146 3147 3146 3145 3145 3145 3145 3144 3143 3142 3142 3142 3142 3141 3141 3141 3141 3140 3140 3139 3139 3138 3138 3137 3137 3136 3135 3135 3134 3133 3131 3130 3128 3127 3125 3124 3122 3120 3118 3116 3115 3113 3110 3108 3105 3103 3100 3098 3095 3093 3090
3147 3148 3147 3146 3145 3144 3144 3145 3146 3146 3146 3146 3145 3145 3144 3143 3143 3142 3142 3143 3143 3144 3144 3145 3146 3146 3145 3145 3146 3146 3147 3147 3146 3147 3145 3145 3147 3147 3147 3146 3145 3144 3143 3143 3142 3141 3142 3141 3141 3141 3141 3140 3140 3140 3139 3139 3138 3138 3137 3137 3136 3135 3135 3134 3133 3132 3130 3129 3127 3126 3124 3122 3120 3119 3117 3115 3113 3111 3109 3106 3104 3101 3099 3097 3094 3091
3147 3148 3148 3147 3146 3145 3145 3146 3147 3147 3146 3146 3145 3145 3144 3143 3142 3142 3142 3142 3142 3143 3143 3143 3144 3144 3143 3144 3144 3144 3145 3145 3145 3145 3145 3144 3145 3146 3147 3146 3144 3143 3143 3142 3141 3141 3141 3141 3141 3141 3140 3140 3140 3139 3139 3139 3138 3138 3137 3136 3136 3135 3135 3134 3133 3132 3130 3129 3127 3126 3124 3123 3121 3119 3117 3116 3114 3112 3109 3107 3105 3103 3100 3098 3095 3093
3148 3148 3148 3147 3146 3146 3147 3147 3147 3147 3146 3145 3144 3143 3143 3143 3142 3142 3141 3141 3142 3143 3142 3142 3143 3142 3142 3142 3143 3143 3143 3144 3144 3144 3144 3144 3144 3144 3144 3144 3143 3142 3142 3142 3141 3141 3141 3141 3140 3140 3140 3139 3139 3139 3139 3138 3138 3137 3137 3136 3136 3135 3135 3134 3133 3132 3131 3129 3128 3126 3125 3123 3121 3120 3118 3116 3114 3112 3110 3108 3106 3104 3101 3099 3097 3094
3147 3147 3147 3147 3146 3146 3146 3145 3146 3146 3145 3144 3142 3141 3142 3142 3141 3141 3141 3141 3142 3142 3141 3141 3142 3142 3141 3141 3141 3142 3142 3143 3142 3142 3142 3142 3143 3143 3143 3143 3142 3142 3141 3141 3141 3141 3141 3141 3140 3140 3140 3139 3139 3139 3139 3138 3138 3137 3137 3136 3136 3135 3134 3134 3133 3132 3131 3130 3128 3126 3125 3123 3122 3120 3118 3117 3115 3113 3111 3109 3107 3105 3102 3100 3098 3095
3146 3146 3146 3146 3145 3144 3144 3144 3145 3145 3144 3143 3141 3141 3141 3141 3140 3139 3139 3140 3141 3140 3139 3140 3141 3141 3141 3139 3139 3140 3140 3142 3142 3140 3140 3141 3141 3142 3142 3142 3142 3141 3140 3140 3140 3140 3140 3140 3140 3140 3139 3139 3139 3138 3138 3138 3137 3137 3136 3136 3135 3135 3134 3133 3133 3132 3131 3130 3128 3127 3125 3124 3122 3120 3119 3117 3116 3114 3112 3110 3108 3106 3104 3101 3099 3096
3145 3145 3145 3145 3144 3143 3143 3143 3143 3143 3143 3142 3141 3140 3139 3139 3139 3138 3138 3139 3139 3139 3138 3139 3139 3140 3139 3138 3137 3137 3138 3139 3140 3140 3139 3139 3140 3141 3142 3142 3141 3140 3140 3140 3139 3139 3139 3139 3139 3139 3139 3139 3138 3138 3138 3137 3137 3136 3136 3136 3135 3134 3134 3133 3133 3132 3131 3130 3129 3127 3126 3124 3123 3121 3119 3118 3116 3115 3113 3111 3109 3107 3105 3102 3100 3097
3145 3144 3144 3144 3143 3142 3142 3142 3142 3142 3141 3140 3140 3139 3139 3139 3138 3138 3138 3139 3139 3138 3138 3138 3138 3139 3138 3137 3136 3137 3137 3138 3139 3139 3139 3138 3138 3139 3141 3141 3140 3139 3139 3139 3139 3139 3138 3138 3138 3139 3139 3138 3138 3137 3137 3137 3136 3136 3136 3135 3135 3134 3134 3133 3133 3132 3131 3130 3129 3128 3126 3125 3124 3122 3120 3119 3117 3115 3113 3112 3110 3108 3106 3103 3101 3098
3145 3144 3144 3144 3143 3141 3142 3142 3141 3141 3140 3139 3139 3138 3139 3140 3140 3139 3139 3138 3138 3137 3137 3137 3137 3138 3138 3137 3137 3136 3137 3137 3137 3138 3138 3137 3136 3138 3139 3140 3140 3139 3138 3138 3138 3138 3137 3137 3138 3138 3138 3138 3138 3137 3136 3136 3136 3135 3135 3135 3134 3134 3133 3133 3132 3132 3131 3130 3129 3128 3127 3126 3124 3123 3121 3119 3118 3116 3114 3112 3111 3109 3107 3105 3102 3099
3144 3143 3144 3144 3142 3140 3141 3141 3141 3141 3140 3138 3138 3138 3138 3139 3139 3138 3137 3137 3137 3137 3136 3136 3136 3136 3136 3137 3137 3136 3135 3136 3135 3135 3136 3135 3135 3136 3137 3137 3139 3139 3137 3137 3137 3137 3137 3137 3137 3137 3137 3137 3137 3136 3136 3135 3135 3135 3135 3135 3134 3134 3133 3133 3132 3132 3131 3130 3129 3128 3127 3126 3125 3123 3122 3120 3119 3117 3115 3113 3112 3110 3108 3106 3104 3101
3142 3142 3143 3143 3141 3139 3140 3140 3141 3141 3139 3137 3137 3138 3138 3138 3137 3137 3136 3136 3136 3136 3135 3135 3134 3135 3135 3135 3135 3135 3134 3134 3134 3133 3133 3133 3133 3134 3135 3135 3137 3138 3136 3135 3136 3136 3136 3135 3136 3137 3137 3136 3136 3136 3135 3135 3135 3134 3134 3134 3134 3133 3133 3132 3132 3131 3131 3130 3130 3129 3128 3127 3125 3124 3122 3121 3119 3118 3116 3114 3113 3111 3109 3107 3105 3103
3139 3140 3141 3141 3140 3139 3139 3140 3141 3139 3137 3136 3136 3137 3137 3137 3136 3136 3135 3135 3135 3134 3134 3133 3133 3133 3133 3133 3133 3133 3132 3132 3133 3132 3131 3131 3131 3132 3133 3132 3134 3135 3135 3133 3133 3134 3134 3134 3135 3136 3136 3136 3136 3135 3135 3134 3134 3134 3134 3134 3133 3133 3133 3132 3132 3131 3131 3130 3130 3129 3128 3127 3126 3124 3123 3121 3120 3118 3117 3115 3114 3112 3110 3108 3106 3104
3137 3138 3139 3138 3138 3138 3138 3139 3138 3135 3135 3135 3135 3135 3135 3135 3135 3134 3134 3133 3134 3134 3133 3133 3132 3132 3132 3131 3131 3131 3130 3130 3131 3131 3130 3129 3129 3130 3130 3130 3131 3133 3132 3131 3132 3133 3133 3133 3134 3135 3135 3135 3135 3135 3134 3134 3133 3133 3133 3133 3133 3133 3132 3132 3132 3131 3131 3130 3130 3129 3128 3127 3126 3124 3123 3122 3120 3119 3117 3116 3114 3112 3111 3109 3107 3105
3135 3136 3137 3137 3137 3137 3137 3135 3134 3133 3133 3133 3133 3133 3133 3133 3133 3133 3132 3132 3133 3133 3132 3131 3131 3132 3132 3130 3129 3128 3129 3129 3129 3129 3129 3129 3129 3130 3129 3129 3130 3131 3130 3130 3132 3133 3133 3133 3133 3133 3134 3134 3134 3134 3133 3133 3133 3133 3132 3133 3132 3132 3132 3132 3132 3131 3131 3130 3130 3129 3128 3127 3126 3125 3123 3122 3121 3119 3118 3116 3115 3113 3111 3110 3108 3106
3133 3133 3134 3135 3136 3137 3136 3133 3132 3132 3131 3131 3132 3131 3131 3132 3132 3132 3131 3131 3131 3132 3131 3130 3130 3131 3130 3130 3128 3127 3128 3128 3127 3127 3127 3127 3129 3129 3127 3127 3128 3128 3128 3129 3130 3131 3131 3131 3132 3132 3132 3133 3133 3133 3132 3132 3132 3132 3132 3132 3132 3132 3132 3132 3131 3131 3131 3130 3130 3129 3128 3127 3126 3125 3124 3123 3121 3120 3118 3117 3115 3114 3112 3111 3109 3107
3131 3130 3131 3133 3136 3137 3135 3132 3131 3129 3129 3130 3130 3130 3130 3130 3130 3130 3130 3130 3130 3131 3130 3130 3130 3129 3128 3127 3127 3126 3127 3127 3126 3125 3124 3125 3126 3126 3125 3126 3127 3126 3126 3127 3128 3128 3129 3129 3130 3130 3131 3132 3132 3132 3131 3131 3131 3131 3131 3131 3131 3132 3132 3131 3131 3131 3131 3130 3129 3129 3128 3127 3126 3125 3124 3123 3122 3120 3119 3118 3116 3115 3113 3111 3109 3107
3128 3127 3128 3131 3134 3134 3133 3131 3130 3128 3128 3130 3129 3128 3129 3130 3130 3130 3130 3129 3129 3130 3130 3129 3129 3127 3126 3125 3126 3126 3126 3125 3124 3124 3123 3123 3124 3124 3124 3125 3127 3126 3125 3125 3125 3126 3127 3128 3128 3129 3130 3131 3131 3131 3130 3130 3130 3130 3131 3131 3131 3131 3131 3131 3131 3131 3130 3130 3129 3129 3128 3127 3126 3125 3124 3123 3122 3121 3120 3118 3117 3115 3114 3112 3110 3108
3125 3125 3127 3129 3131 3131 3130 3129 3128 3127 3128 3129 3129 3127 3127 3128 3128 3129 3130 3129 3129 3129 3128 3128 3128 3127 3126 3125 3125 3125 3124 3123 3123 3123 3123 3122 3122 3123 3123 3124 3125 3124 3124 3124 3124 3124 3125 3126 3127 3128 3129 3130 3130 3130 3130 3130 3130 3130 3130 3130 3130 3131 3131 3131 3131 3130 3130 3130 3129 3129 3128 3127 3126 3125 3125 3124 3123 3122 3120 3119 3118 3116 3115 3113 3111 3109
3123 3123 3125 3126 3127 3127 3128 3127 3126 3125 3126 3128 3128 3126 3125 3126 3127 3127 3128 3129 3129 3128 3127 3126 3126 3126 3125 3124 3124 3124 3123 3121 3121 3121 3122 3122 3121 3121 3122 3122 3122 3121 3122 3122 3122 3123 3123 3124 3126 3127 3128 3129 3129 3129 3129 3129 3129 3129 3129 3130 3130 3130 3130 3130 3130 3130 3130 3129 3129 3129 3128 3127 3126 3126 3125 3124 3123 3122 3121 3120 3118 3117 3115 3114 3112 3110
3121 3120 3121 3123 3123 3124 3124 3124 3124 3123 3124 3127 3127 3125 3124 3126 3127 3126 3126 3127 3128 3127 3126 3125 3124 3124 3123 3122 3122 3122 3121 3120 3119 3119 3120 3121 3122 3121 3121 3121 3120 3119 3120 3120 3120 3121 3122 3123 3125 3126 3127 3127 3128 3128 3128 3128 3128 3128 3129 3129 3130 3130 3130 3130 3130 3130 3130 3129 3129 3128 3128 3127 3126 3126 3125 3124 3123 3123 3122 3120 3119 3117 3116 3114 3112 3111
3119 3119 3119 3120 3121 3121 3120 3121 3122 3122 3122 3124 3125 3124 3123 3124 3124 3124 3124 3125 3126 3126 3126 3125 3124 3123 3122 3121 3121 3121 3121 3119 3118 3118 3119 3120 3121 3121 3120 3119 3118 3118 3118 3119 3119 3120 3121 3122 3124 3125 3126 3126 3127 3127 3127 3127 3127 3127 3128 3129 3129 3129 3129 3130 3130 3129 3129 3129 3129 3128 3128 3127 3126 3126 3125 3124 3124 3123 3122 3121 3119 3118 3116 3115 3113 3111
3117 3117 3117 3118 3118 3119 3118 3118 3120 3120 3120 3120 3121 3122 3123 3122 3122 3122 3123 3123 3124 3124 3124 3124 3124 3122 3121 3120 3120 3120 3120 3118 3117 3117 3117 3119 3121 3121 3119 3118 3118 3117 3117 3117 3118 3118 3120 3121 3123 3124 3125 3125 3126 3126 3126 3126 3126 3127 3127 3128 3129 3129 3129 3129 3129 3129 3129 3129 3128 3128 3128 3127 3126 3126 3125 3125 3124 3123 3122 3121 3120 3118 3117 3115 3114 3112
3116 3116 3116 3116 3116 3116 3115 3116 3117 3118 3118 3118 3118 3119 3122 3121 3120 3120 3121 3121 3122 3122 3122 3122 3123 3122 3120 3119 3119 3119 3119 3118 3117 3116 3116 3118 3120 3119 3117 3116 3117 3116 3116 3116 3117 3117 3119 3121 3122 3123 3124 3124 3125 3125 3125 3125 3126 3126 3127 3127 3128 3128 3128 3129 3129 3129 3129 3129 3128 3128 3127 3127 3127 3126 3125 3125 3124 3124 3123 3122 3120 3119 3117 3116 3114 3113
3114 3113 3112 3113 3114 3113 3112 3113 3116 3116 3117 3118 3117 3117 3119 3118 3117 3118 3119 3119 3119 3120 3120 3119 3120 3121 3120 3119 3119 3119 3118 3117 3116 3115 3115 3117 3118 3117 3116 3115 3115 3115 3115 3115 3116 3117 3118 3120 3121 3122 3123 3123 3123 3124 3124 3124 3125 3126 3126 3127 3127 3128 3128 3128 3128 3128 3128 3128 3128 3128 3127 3127 3127 3126 3125 3125 3124 3124 3123 3122 3121 3119 3118 3117 3115 3114
3110 3109 3109 3110 3111 3111 3110 3112 3114 3114 3114 3115 3115 3115 3115 3115 3114 3115 3116 3116 3116 3118 3118 3117 3118 3118 3118 3118 3119 3119 3117 3117 3116 3115 3115 3116 3117 3116 3115 3114 3114 3114 3114 3114 3115 3116 3118 3119 3120 3121 3122 3122 3122 3123 3123 3124 3124 3125 3126 3126 3127 3127 3127 3127 3128 3128 3128 3128 3128 3128 3127 3127 3127 3126 3126 3125 3124 3124 3123 3122 3121 3120 3118 3117 3116 3115
3107 3107 3107 3108 3108 3108 3109 3111 3112 3111 3111 3112 3112 3111 3111 3110 3110 3111 3112 3112 3112 3113 3115 3116 3116 3116 3116 3117 3118 3118 3117 3116 3116 3116 3115 3115 3116 3115 3114 3113 3112 3112 3112 3113 3113 3115 3117 3118 3119 3120 3120 3121 3121 3122 3122 3123 3124 3124 3125 3126 3126 3126 3127 3127 3127 3128 3128 3128 3128 3127 3127 3127 3127 3126 3126 3125 3124 3124 3123 3122 3121 3120 3119 3118 3116 3115
3104 3105 3106 3107 3106 3105 3107 3109 3109 3108 3107 3108 3109 3109 3107 3106 3106 3107 3108 3109 3109 3109 3111 3113 3113 3114 3114 3114 3115 3116 3115 3114 3115 3115 3114 3113 3114 3114 3112 3111 3111 3110 3110 3111 3112 3114 3115 3117 3118 3119 3119 3120 3120 3121 3122 3122 3123 3123 3124 3125 3125 3126 3126 3126 3127 3127 3127 3127 3127 3127 3127 3127 3127 3126 3126 3125 3124 3124 3123 3122 3121 3120 3119 3118 3117 3116
3101 3102 3104 3104 3103 3102 3103 3105 3106 3104 3103 3104 3106 3106 3105 3105 3105 3105 3106 3107 3106 3106 3107 3108 3109 3111 3111 3112 3113 3114 3113 3112 3113 3112 3111 3111 3112 3112 3111 3110 3109 3109 3109 3109 3111 3112 3114 3115 3117 3117 3118 3119 3120 3120 3121 3122 3122 3123 3124 3124 3125 3125 3125 3126 3126 3126 3127 3127 3127 3127 3127 3126 3126 3126 3125 3125 3124 3123 3123 3122 3121 3120 3119 3118 3117 3116